Regional Weather Roundup
Issued by NWS

Home | Current Version | Previous Version | Text Only | Print | Product List | Glossary On
Versions: 1 2 3 4 5 6 7 8 9 10 11 12 13 14 15 16 17 18 19 20 21 22 23 24 25 26 27 28 29 30 31 32 33 34 35 36 37 38 39 40 41 42 43 44 45 46 47 48 49 50
000
ASUS45 KPSR 262310
RWRAZ

ARIZONA HOURLY REGIONAL WEATHER ROUNDUP
NATIONAL WEATHER SERVICE PHOENIX AZ
400 PM MST SUN FEB 26 2017

NOTE: FAIR INDICATES FEW OR NO CLOUDS BELOW 12,000 FEET WITH NO
SIGNIFICANT WEATHER AND/OR OBSTRUCTIONS TO VISIBILITY.

AZZ001>003-036-270000-
NORTHWEST ARIZONA

CITY           SKY/WX    TMP DP  RH WIND       PRES   REMARKS
BULLHEAD CITY  SUNNY     64  32  29 SW9       29.85F
KINGMAN        MOSUNNY   54  12  18 S20       29.87S
$$

AZZ004>008-015-016-018-270000-
NORTH CENTRAL ARIZONA

CITY           SKY/WX    TMP DP  RH WIND       PRES   REMARKS
GRAND CANYON   CLOUDY    40  21  46 SW12      29.86S WCI  33
WILLIAMS       CLOUDY    39  23  52 SW12G18   29.89R WCI  32
PRESCOTT       CLOUDY    47  22  37 SW13      29.89R
FLAGSTAFF      CLOUDY    35  21  56 SW12G22   29.88S WCI  27
PAYSON         CLOUDY    46  23  39 S10       29.93R
PAGE           MOSUNNY   50  14  23 E6        29.82F
$$

AZZ009>014-017-270000-
NORTHEAST ARIZONA

CITY           SKY/WX    TMP DP  RH WIND       PRES   REMARKS
WINSLOW        PTSUNNY   50  23  34 SW9       29.86F
SAINT JOHNS    CLOUDY    46  19  34 MISG      29.85F
WINDOW ROCK    CLOUDY    39  21  48 SW13      29.89R WCI  31
SHOW LOW       MOSUNNY   39  19  45 SW15G24   29.90S WCI  31
$$

AZZ023-270000-
GREATER PHOENIX AREA

CITY           SKY/WX    TMP DP  RH WIND       PRES   REMARKS
PHOENIX        PTSUNNY   67  28  23 SW13      29.86R
BUCKEYE        SUNNY     64  28  25 SW3       29.88S
GLENDALE       MOSUNNY   66  28  24 S12       29.89R
LUKE AFB       SUNNY     67  26  21 S10       29.86R
DEER VALLEY    CLOUDY    64  24  21 SW9       29.87R
SCOTTSDALE     CLOUDY    65  24  21 SW10      29.89R
MESA-FALCON    PTSUNNY  N/A N/A N/A S12G17    29.84S
MESA-GATEWAY   MOSUNNY   66  25  20 SW14      29.88S
CHANDLER       PTSUNNY   66  21  18 SW14      29.88R
$$

AZZ027-028-270000-
SOUTHWEST MARICOPA COUNTY AND PINAL COUNTY

CITY           SKY/WX    TMP DP  RH WIND       PRES   REMARKS
CASA GRANDE    NOT AVBL
$$

AZZ503-504-507>509-270000-
SOUTHEAST ARIZONA

CITY           SKY/WX    TMP DP  RH WIND       PRES   REMARKS
TUCSON         MOSUNNY   67  21  17 SW16      29.90S
DAVIS-MONTHAN  MOSUNNY   66  21  18 NW15G24   29.88F
RYAN FIELD       N/A     68  27  21 W20       29.90S
NOGALES        MOSUNNY   62  17  17 SW14G22   29.93S
SIERRA VISTA   PTSUNNY   59  16  19 W18G29    29.93R
DOUGLAS        MOSUNNY   63  18  17 SW21G35   29.92R
SAFFORD        CLOUDY    61  26  26 NW13G21   29.88R
$$

AZZ020-021-025-026-031-270000-
SOUTHWEST ARIZONA

CITY           SKY/WX    TMP DP  RH WIND       PRES   REMARKS
YUMA           SUNNY     69  38  32 W13G22    29.89S
$$

CAZ031-033-041-043-047-048-061-270000-
SOUTHERN CALIFORNIA

CITY           SKY/WX    TMP DP  RH WIND       PRES   REMARKS
DOWNTOWN L.A.  CLOUDY    56  49  77 VRB5      29.94F
L.A. AIRPORT   PTSUNNY   54  47  77 S9        29.95S
SAN DIEGO      PTSUNNY   57  49  74 S18       30.00S
BURBANK        CLOUDY    55  43  63 S10       29.92F
ONTARIO        CLOUDY    53  45  74 SE6       29.93F
RIVERSIDE      LGT RAIN  54  48  80 CALM      29.94F
PALM SPRINGS   MOSUNNY   68  44  42 N10G18    29.88F
EL CENTRO NAS  LGT RAIN  69  37  30 W24G31    29.91F
IMPERIAL       SUNNY     68  43  40 W21G28    29.88F
BLYTHE         SUNNY     67  32  27 VRB5      29.86F
NEEDLES        SUNNY     65  31  28 CALM      29.85F
$$

NVZ020-UTZ003-270000-
SOUTHERN NEVADA-UTAH

CITY           SKY/WX    TMP DP  RH WIND       PRES   REMARKS
LAS VEGAS      MOSUNNY   60  25  26 S13G26    29.80F
SALT LAKE CITY PTSUNNY   40  18  41 S16G25    29.78F WCI  31
$$

NMZ009-TXZ055-270000-
NEW MEXICO-WEST TEXAS

CITY           SKY/WX    TMP DP  RH WIND       PRES   REMARKS
ALBUQUERQUE    CLOUDY    42  23  46 E3        29.91R
EL PASO        PTSUNNY   67  18  15 W18G29    29.83R
$$


........................KEY........................
SKY/WX - SKY CONDITION/WEATHER
TMP    - TEMPERATURE IN FAHRENHEIT
DP     - DEW POINT IN FAHRENHEIT
RH     - RELATIVE HUMIDITY IN PERCENT
WIND   - DIRECTION AND SPEED IN MILES PER HOUR (MPH)
VRB    - VARIABLE WIND DIRECTION
PRES   - MEAN SEA LEVEL PRESSURE IN INCHES OF MERCURY
         F - FALLING PRESSURE   R - RISING PRESSURE
         S - STEADY PRESSURE
VSB    - VISIBILITY IN MILES
HX     - HEAT INDEX IN FAHRENHEIT
WCI    - WIND CHILL INDEX IN FAHRENHEIT
TC     - TEMPERATURE IN CELSIUS WHICH IS ALSO KNOWN AS
         TEMPERATURE IN CENTIGRADE
AFB    - AIR FORCE BASE
         LUKE AFB IS LUKE AIR FORCE BASE
         DAVIS-MONTHAN IS DAVIS-MONTHAN AIR FORCE BASE
NAS    - NAVAL AIR STATION
         EL CENTRO NAS IS EL CENTRO NAVAL AIR STATION
N/A    - NOT AVAILABLE




USA.gov is the U.S. government's official web portal to all federal, state and local government web resources and services.